Theta_e
352 352 352 351 352 352 351 352 354 354 353 354 351 351 348 351 353 355 355 353 355 358 358 358 359 358 353 349 350 350 348 348 348 344 341 341 345 348 347 347 346 346 345
353 354 353 353 352 352 353 352 353 354 355 355 354 353 351 350 353 355 355 352 355 357 358 359 360 359 360 360 355 352 351 352 352 354 350 348 348 349 352 352 350 347 345
352 353 353 353 353 353 353 353 353 354 355 355 355 354 353 350 350 353 355 355 355 356 358 359 360 361 361 359 358 355 353 354 354 354 352 348 346 347 348 350 352 352 352
350 351 353 355 354 353 354 354 354 354 355 355 355 355 354 352 349 349 350 353 354 355 357 359 360 360 360 361 361 361 359 358 354 354 352 351 350 350 351 352 353 352 353
351 351 354 355 355 355 355 355 355 355 355 356 356 355 354 353 349 349 349 349 352 354 355 356 357 358 357 359 358 358 358 358 355 352 351 350 348 349 353 353 354 354 354
354 354 354 357 357 357 357 356 356 356 356 356 356 356 355 352 348 346 347 348 349 351 352 353 355 355 356 354 353 353 354 359 361 358 354 352 357 356 353 354 355 357 361
357 356 356 357 358 358 357 357 357 357 357 357 357 356 355 355 352 349 347 347 347 349 351 352 351 347 348 352 354 354 354 352 354 355 357 357 356 356 358 360 361 361 361
358 358 357 358 359 358 358 358 359 358 358 358 357 357 356 356 354 352 349 349 350 351 351 352 353 352 351 350 351 352 354 354 355 355 355 356 356 358 360 362 359 359 358
358 358 358 358 359 359 359 359 358 358 358 358 358 358 358 357 355 353 351 350 350 352 353 353 354 355 354 352 352 352 352 352 350 351 352 353 356 358 358 356 353 358 358
358 358 358 358 359 359 359 359 358 358 357 356 356 357 357 358 357 354 352 351 350 350 352 354 354 354 355 355 354 354 355 354 354 356 360 363 363 362 363 362 358 357 356
356 355 356 357 359 359 359 359 359 358 357 358 357 357 357 357 357 356 354 352 350 350 351 350 352 354 354 353 352 355 356 357 359 361 362 363 364 363 362 363 359 357 355
355 355 357 357 356 357 358 359 359 359 359 360 359 359 358 360 358 358 356 354 352 353 354 354 356 357 358 357 356 355 354 353 355 359 361 362 360 361 361 359 356 354 350
356 357 357 357 357 356 358 359 359 359 359 360 360 360 359 359 361 361 359 357 355 353 357 359 360 361 361 360 359 358 357 355 358 359 360 361 360 361 359 354 351 346 342
357 357 358 359 358 357 358 359 359 359 359 358 359 358 359 359 360 361 362 360 359 357 355 356 359 360 360 361 361 360 358 359 361 360 361 361 363 359 355 351 345 344 338
356 357 357 358 358 359 358 358 358 358 358 359 358 359 359 361 361 362 363 365 362 358 357 358 359 359 359 360 361 362 363 363 360 360 360 359 357 355 351 349 345 343 341
357 355 355 354 356 356 357 357 355 354 357 357 359 360 361 361 362 362 362 362 363 362 359 361 362 360 358 358 358 359 360 359 358 357 355 354 354 354 351 347 344 342 342
352 356 358 358 358 356 358 359 361 355 355 356 357 357 359 361 361 360 360 360 360 360 361 363 362 359 361 363 363 362 361 359 356 353 353 352 354 353 346 347 342 341 342
337 338 351 353 355 356 352 354 358 357 357 358 354 354 355 356 356 357 359 360 358 358 359 361 362 362 363 365 363 362 361 360 354 354 354 353 352 350 346 344 341 341 340
329 332 333 340 348 347 342 336 343 353 350 357 357 356 355 355 356 357 357 355 362 363 362 362 363 363 363 362 363 363 361 355 356 353 350 348 347 350 345 341 339 338 339
324 324 325 331 332 341 345 347 347 348 351 353 352 351 347 344 350 350 349 351 357 362 362 362 361 361 363 363 363 361 356 351 351 349 349 348 347 346 342 340 339 338 335
322 323 323 325 328 331 336 340 343 344 344 347 349 351 355 356 355 355 357 354 354 359 363 364 363 361 360 360 356 352 347 349 347 348 349 349 347 343 341 340 339 336 336
322 322 323 325 326 328 330 333 335 336 340 341 341 343 345 347 351 356 357 357 359 359 361 362 363 360 358 356 355 354 352 350 348 349 349 346 342 341 340 339 338 337 336
320 322 324 324 324 325 327 330 331 332 334 338 340 340 341 343 345 351 355 357 358 359 358 356 356 356 352 350 349 348 348 346 345 343 343 341 340 339 338 337 338 336 335
316 319 322 325 327 327 328 330 333 333 333 335 339 340 340 343 344 348 349 351 351 349 349 348 348 348 346 345 344 343 343 342 342 341 340 338 337 337 337 336 336 335 335
308 309 310 314 316 327 332 331 333 336 338 334 335 335 333 334 336 334 336 339 341 340 338 339 339 341 340 340 341 340 336 337 337 337 337 335 335 335 335 334 335 333 333
303 302 301 302 303 304 306 310 312 313 315 313 312 314 315 315 316 321 323 326 324 319 320 318 318 320 320 319 325 331 333 334 334 335 336 335 335 336 336 335 336 336 335
Wind_Speed
38 37 35 34 32 30 28 26 23 20 19 18 16 15 16 16 15 15 14 13 12 12 12 12 12 11 11 11 11 11 13 13 15 17 15 15 15 16 17 17 18 20 21
38 37 37 35 33 31 29 28 24 22 21 21 19 17 17 17 16 16 16 15 14 15 14 15 15 14 14 14 14 15 15 15 17 19 19 19 18 18 21 20 19 20 23
38 38 37 36 34 33 32 29 27 24 23 22 21 21 20 19 19 18 18 17 17 17 16 16 16 15 16 16 16 16 16 17 17 20 23 22 22 22 22 22 20 21 23
38 38 36 35 35 36 34 31 28 28 25 24 24 23 22 21 21 20 20 19 19 19 18 18 17 18 18 17 17 18 18 18 19 20 22 22 22 20 20 21 21 21 23
36 38 37 36 35 34 32 32 30 29 27 26 25 24 23 23 24 23 22 22 22 22 21 21 20 21 21 21 18 18 17 18 20 22 23 24 24 21 20 25 27 27 26
37 37 36 34 35 35 32 31 30 29 29 26 27 26 26 27 27 29 27 23 23 24 24 23 23 23 24 27 28 29 27 22 23 25 27 27 24 23 24 26 28 29 21
36 37 36 36 35 35 34 32 31 31 29 29 28 27 29 29 29 31 32 29 26 26 26 25 25 25 26 25 25 26 27 29 31 33 31 29 30 25 23 24 24 22 22
34 34 35 35 35 33 32 32 32 31 30 30 28 29 28 30 32 33 34 31 28 30 30 29 29 29 28 27 26 26 26 26 25 26 26 25 23 21 20 21 21 20 20
36 36 36 36 33 32 32 32 31 30 29 30 29 28 29 30 31 33 33 27 29 31 30 31 32 32 33 32 30 29 30 30 29 30 32 32 29 26 25 24 20 16 13
39 39 36 34 34 34 32 31 31 29 29 28 30 30 31 31 31 33 33 27 27 28 28 30 33 35 32 32 30 29 29 27 24 23 23 22 20 18 16 17 13 13 12
31 32 32 32 31 32 31 30 30 29 26 28 26 27 28 27 29 30 33 31 28 27 28 27 28 29 31 33 38 32 29 23 22 22 22 20 17 15 16 15 14 16 10
28 30 30 31 30 28 28 27 26 25 26 24 25 25 25 25 28 29 32 34 32 29 28 26 25 25 25 27 27 30 31 31 26 23 21 15 17 19 16 13 11 8 11
26 27 27 27 28 26 27 25 25 25 25 25 25 24 23 24 24 27 30 30 32 32 27 24 23 20 20 23 25 25 23 20 20 21 18 18 17 15 8 7 8 5 7
24 24 24 24 24 25 24 25 25 26 26 25 24 23 22 22 21 20 21 27 30 29 34 30 27 24 22 23 20 20 21 22 22 20 18 17 12 10 8 7 5 3 3
22 22 22 22 23 22 23 23 24 24 25 24 23 22 21 20 21 21 19 17 17 21 23 21 23 24 25 22 24 24 22 20 21 21 20 18 15 12 10 7 6 6 7
14 16 18 18 18 18 19 17 16 12 19 22 20 20 20 18 10 17 21 20 15 15 15 19 20 19 19 19 21 23 23 27 25 21 20 18 16 14 10 8 7 9 9
15 5 12 16 17 16 12 5 6 9 21 18 27 26 21 14 14 18 16 16 19 21 19 17 18 18 20 20 19 19 19 20 19 18 19 16 14 13 12 11 11 12 11
8 5 7 9 14 18 19 12 3 13 2 13 29 30 27 28 27 24 21 17 16 19 18 20 19 19 18 20 19 19 18 15 16 16 15 15 15 13 13 13 15 15 14
9 6 6 2 1 4 10 5 11 17 18 24 14 12 18 21 23 26 28 24 22 22 21 22 22 23 22 21 19 17 16 19 22 22 20 18 16 17 14 15 15 16 14
10 6 7 5 3 4 4 13 23 22 17 18 15 10 10 8 10 11 17 23 24 25 23 24 21 22 20 19 17 16 15 16 20 21 20 20 17 17 16 17 17 17 18
13 11 7 6 3 4 8 7 6 14 16 15 13 9 9 9 10 11 13 13 18 22 23 24 22 19 19 18 17 15 15 18 18 20 19 18 17 17 17 18 18 18 18
11 12 13 12 9 6 5 8 13 16 15 13 11 9 10 9 11 13 13 14 15 17 19 20 20 19 18 18 17 16 16 16 17 19 19 19 18 18 18 19 19 19 19
9 10 10 11 12 12 12 14 14 14 15 13 11 11 10 12 13 13 15 14 14 13 12 9 11 14 13 13 13 14 15 16 17 17 18 18 19 19 19 21 21 19 20
9 8 9 12 13 14 13 12 12 11 13 14 14 13 15 13 13 14 12 11 11 11 12 12 12 13 12 11 11 12 12 13 15 16 17 17 19 16 18 19 20 21 21
13 11 10 10 13 14 14 10 10 9 7 9 7 7 8 7 4 3 1 7 9 8 7 7 6 6 7 8 10 11 14 16 15 15 16 17 17 17 19 18 18 18 20
21 20 19 18 18 19 18 16 13 12 10 9 9 5 4 3 3 3 5 9 8 7 8 6 9 6 4 1 10 14 14 16 19 17 13 15 16 17 19 20 19 20 20
Wind_Direction
203 203 207 210 213 217 221 226 226 224 223 226 224 222 220 219 216 218 226 237 232 233 234 236 238 243 248 249 248 251 256 257 267 277 280 284 276 278 286 281 279 278 280
204 201 204 207 209 213 220 224 224 223 221 225 225 223 224 222 220 220 223 231 236 236 236 237 242 243 244 252 253 254 261 264 270 279 284 286 282 284 280 279 286 285 282
202 203 205 208 210 212 216 218 220 221 221 223 223 223 225 225 224 226 228 231 237 240 241 239 243 243 247 252 250 255 256 256 258 266 282 288 289 290 289 287 287 293 292
199 201 202 203 204 208 213 214 214 216 219 221 222 223 225 226 227 227 230 233 237 242 243 245 244 245 249 251 252 253 256 264 268 269 275 280 283 288 285 286 289 294 299
197 200 200 201 203 208 209 209 211 214 218 222 223 225 226 226 229 229 230 234 238 243 243 245 247 248 248 247 251 254 255 258 268 273 278 283 285 293 304 302 298 301 299
197 200 199 200 201 205 207 208 209 212 215 217 221 223 225 229 231 230 228 232 237 241 245 248 249 252 255 258 257 256 253 260 264 271 277 283 289 287 294 297 300 299 304
199 197 197 198 201 203 204 206 208 210 213 217 219 221 225 228 231 232 234 232 236 240 243 246 251 253 254 254 261 268 269 265 260 261 269 272 283 287 292 291 290 300 301
202 199 198 198 202 203 202 205 207 210 210 214 218 222 226 229 232 234 234 233 237 241 245 246 247 250 250 250 254 258 261 263 266 268 263 272 277 286 286 289 301 297 293
200 200 199 197 198 200 202 205 207 209 211 216 219 221 225 231 233 236 235 233 239 242 244 246 246 248 250 251 251 256 260 263 267 269 270 274 280 285 285 283 285 292 294
199 198 198 197 195 197 200 201 204 208 212 216 220 222 226 231 235 237 235 230 237 241 244 247 249 246 248 250 247 251 257 263 268 272 275 280 282 284 296 293 286 271 286
199 198 198 199 199 198 198 200 202 205 211 217 220 222 225 230 235 237 237 226 232 237 242 246 249 251 254 251 248 245 251 263 267 270 272 273 272 273 276 282 287 287 283
199 197 195 196 198 199 201 203 205 206 211 216 219 226 227 230 234 235 237 232 227 233 240 245 249 250 251 256 256 255 256 257 264 265 266 264 272 276 274 269 267 263 290
195 194 192 195 197 198 197 201 202 205 213 214 217 224 228 228 231 235 238 239 238 231 237 241 247 252 253 258 258 258 259 254 252 253 253 262 266 272 232 243 254 290 274
192 188 186 189 195 200 198 202 207 208 211 218 214 218 220 223 224 224 225 233 236 238 237 241 244 246 248 251 253 256 250 244 246 250 252 261 260 235 226 213 206 223 160
189 183 182 186 191 197 205 204 210 217 215 213 217 216 216 219 221 222 220 216 221 227 226 234 238 238 240 241 243 246 249 245 242 245 247 247 244 229 211 221 213 211 192
165 176 178 179 180 195 198 213 228 235 223 233 226 216 220 223 207 213 224 227 221 222 212 229 229 227 229 237 237 239 240 241 242 245 244 241 228 210 210 214 216 204 194
77 107 136 156 172 180 184 208 252 232 244 238 242 248 232 218 224 237 233 234 236 234 233 230 233 217 229 242 240 238 236 234 232 232 233 226 211 214 196 215 207 204 207
76 82 144 148 162 154 133 98 123 273 254 262 243 236 240 238 240 239 242 242 240 234 230 231 234 237 237 244 244 241 239 232 219 221 218 209 203 202 210 211 204 204 202
358 30 17 14 137 193 207 117 359 279 243 252 233 211 232 231 231 232 234 234 239 239 236 238 242 244 244 244 244 238 229 227 233 224 213 203 202 213 206 206 206 205 203
332 351 358 303 325 146 96 147 182 228 236 241 247 231 183 200 210 222 231 232 233 241 244 247 244 243 241 239 234 227 225 226 227 216 205 198 212 214 208 207 206 204 205
325 329 305 254 215 196 206 188 195 232 227 226 227 231 224 221 245 237 232 222 233 240 243 247 252 246 244 237 230 224 215 218 213 202 209 218 216 215 216 216 203 209 207
325 317 325 326 320 293 255 232 238 248 247 241 244 246 266 259 251 248 240 243 243 241 243 247 246 244 239 233 225 214 207 210 207 210 218 219 217 215 216 213 209 211 207
321 311 306 297 286 280 270 247 244 252 260 265 270 272 268 276 271 256 244 234 233 238 230 231 235 236 232 225 217 214 214 218 218 216 218 220 223 220 209 212 211 203 199
350 337 320 301 287 285 277 272 263 262 271 276 278 274 275 278 280 268 251 239 213 204 217 219 218 221 221 223 226 227 228 231 231 229 227 222 226 215 212 210 208 207 207
20 16 9 355 344 326 309 286 291 312 329 359 2 351 348 327 302 271 260 212 185 185 156 152 154 195 187 209 232 225 225 216 208 218 209 213 215 209 210 210 209 210 216
39 37 33 30 30 29 22 13 15 13 10 6 355 337 322 292 268 227 177 158 142 148 129 131 131 116 112 268 231 227 226 221 217 208 204 206 218 214 214 215 213 216 217